OK9CPU-9 Weather Reports


time (UTC)temp
F
wind
direction
speed
knots
gust
knots
rain 1hr
in
rain 24hr
in
rain mn
in
humidity
%
barometer
mb
20260504003451 52 0.0 0.0 0.00 0.00 0.00 28 1015.6
20260504001809 53 0.0 0.0 0.00 0.00 0.00 28 1015.5
20260504000134 53 0.0 0.0 0.00 0.00 0.00 28 1015.6
20260503234459 53 0.0 0.0 0.00 0.00 0.00 28 1015.6
20260503232824 54 0.0 0.0 0.00 0.00 0.00 28 1015.7
20260503231149 54 0.0 0.0 0.00 0.00 0.00 28 1015.7
20260503225514 54 0.0 0.0 0.00 0.00 0.00 28 1015.9
20260503223839 54 0.0 0.0 0.00 0.00 0.00 28 1016.0
20260503222211 55 0.0 0.0 0.00 0.00 0.00 28 1015.9
20260503220529 56 0.0 0.0 0.00 0.00 0.00 28 1016.0
20260503214901 56 0.0 0.0 0.00 0.00 0.00 28 1016.0
20260503213219 57 0.0 0.0 0.00 0.00 0.00 29 1015.9
20260503211543 57 0.0 0.0 0.00 0.00 0.00 29 1015.8
20260503205908 58 0.0 0.0 0.00 0.00 0.00 29 1016.0
20260503204241 58 0.0 0.0 0.00 0.00 0.00 29 1016.2
20260503202558 59 0.0 0.0 0.00 0.00 0.00 29 1016.2
20260503200923 60 0.0 0.0 0.00 0.00 0.00 29 1016.2
20260503195248 60 0.0 0.0 0.00 0.00 0.00 29 1016.2
20260503191946 62 0.0 0.0 0.00 0.00 0.00 29 1016.2
20260503190311 64 0.0 0.0 0.00 0.00 0.00 29 1016.2
20260503184628 65 0.0 0.0 0.00 0.00 0.00 29 1016.1
20260503182953 66 0.0 0.0 0.00 0.00 0.00 29 1015.9
20260503181318 67 0.0 0.0 0.00 0.00 0.00 28 1015.8
20260503175643 69 0.0 0.0 0.00 0.00 0.00 28 1015.7
20260503174008 70 0.0 0.0 0.00 0.00 0.00 28 1015.7
20260503172333 71 0.0 0.0 0.00 0.00 0.00 27 1015.6
20260503170707 72 0.0 0.0 0.00 0.00 0.00 27 1015.6
20260503072639 89 0.0 0.0 0.00 0.00 0.00 16 1019.7
20260503071004 87 0.0 0.0 0.00 0.00 0.00 16 1019.7
20260503054709 80 0.0 0.0 0.00 0.00 0.00 14 1019.2
20260503053026 76 0.0 0.0 0.00 0.00 0.00 15 1019.3
20260503051359 71 0.0 0.0 0.00 0.00 0.00 16 1019.3
20260503045716 65 0.0 0.0 0.00 0.00 0.00 17 1019.3
20260503044041 59 0.0 0.0 0.00 0.00 0.00 18 1019.5
20260503042406 52 0.0 0.0 0.00 0.00 0.00 22 1019.4
20260503040731 46 0.0 0.0 0.00 0.00 0.00 25 1019.4
20260503035056 44 0.0 0.0 0.00 0.00 0.00 25 1019.4
20260503033421 43 0.0 0.0 0.00 0.00 0.00 26 1019.4
20260503031746 43 0.0 0.0 0.00 0.00 0.00 26 1019.3
20260503030111 43 0.0 0.0 0.00 0.00 0.00 26 1019.3
20260503024443 43 0.0 0.0 0.00 0.00 0.00 27 1019.3
20260503022801 43 0.0 0.0 0.00 0.00 0.00 27 1019.5
20260503021134 44 0.0 0.0 0.00 0.00 0.00 27 1019.4
20260503015451 43 0.0 0.0 0.00 0.00 0.00 27 1019.4
20260503013823 44 0.0 0.0 0.00 0.00 0.00 27 1019.4
20260503012148 44 0.0 0.0 0.00 0.00 0.00 27 1019.3
20260503010506 45 0.0 0.0 0.00 0.00 0.00 27 1019.3